Weather History for Ogden Hill AFB, UT

Change the Weather History Date:

Monday, June 2, 2014

  Actual Average Record
Temperature  
Mean Temperature 67 °F -  
Max Temperature 85 °F 72 °F 89 °F (2012)
Min Temperature 50 °F 51 °F 42 °F (2005)
Cooling Degree Days 2    
Growing Degree Days 17 (Base 50)    
Moisture  
Dew Point 29 °F    
Average Humidity 26    
Maximum Humidity 41    
Minimum Humidity 11    
Precipitation  
Precipitation 0.00 in - - ()
Sea Level Pressure  
Sea Level Pressure 29.79 in    
Wind  
Wind Speed 14 mph (ESE)    
Max Wind Speed 25 mph    
Max Gust Speed 30 mph    
Visibility 10 miles    
Events      
Averages and records for this station are not official NWS values.
T = Trace of Precipitation, MM = Missing Value Source: NWS Daily Summary

Daily Weather History Graph

Daily Weather History Graph

Search for Another Location

Airport:

Trip Planner

Search our weather history database for the weather conditions in past years. The results will help you decide how hot, cold, wet, or windy it might be!

Date:

Astronomy

Jun. 02, 2014 Rise Set
Actual Time 5:57 AM MDT 8:55 PM MDT
Civil Twilight 5:24 AM MDT 9:28 PM MDT
Nautical Twilight 4:42 AM MDT 10:10 PM MDT
Astronomical Twilight 3:53 AM MDT 10:59 PM MDT
Moon 10:29 AM MDT (6/2) No Moon Set
Length of Visible Light 16h 03m
Length of Day
14h 57m
Waxing Crescent, 22% of the Moon is Illuminated
Jun 2
Waxing Crescent
Jun 5
First Quarter
Jun 12
Full
Jun 19
Last Quarter
Jun 27
New

Hourly Weather History & Observations

Time (MDT) Temp. Dew Point Humidity Pressure Visibility Wind Dir Wind Speed Gust Speed Precip Events Conditions
12:58 AM 58.5 °F 26.6 °F 30% 29.89 in 10.0 mi East 17.3 mph - N/A   Clear
1:58 AM 55.4 °F 26.6 °F 33% 29.89 in 10.0 mi ESE 15.0 mph - N/A   Clear
2:58 AM 54.7 °F 27.3 °F 35% 29.88 in 10.0 mi ESE 18.4 mph 25.3 mph N/A   Clear
3:58 AM 54.0 °F 27.1 °F 36% 29.88 in 10.0 mi East 18.4 mph 23.0 mph N/A   Clear
4:58 AM 52.0 °F 27.1 °F 38% 29.87 in 10.0 mi ESE 17.3 mph - N/A   Clear
5:58 AM 50.9 °F 27.7 °F 41% 29.89 in 10.0 mi ESE 19.6 mph 29.9 mph N/A   Clear
6:58 AM 51.3 °F 27.9 °F 40% 29.91 in 10.0 mi ESE 25.3 mph 29.9 mph N/A   Clear
7:58 AM 53.4 °F 29.3 °F 40% 29.91 in 10.0 mi ESE 17.3 mph 27.6 mph N/A   Clear
8:58 AM 57.4 °F 30.6 °F 36% 29.91 in 10.0 mi ESE 19.6 mph 27.6 mph N/A   Clear
9:58 AM 63.1 °F 32.9 °F 32% 29.89 in 10.0 mi ESE 16.1 mph 24.2 mph N/A   Clear
10:58 AM 69.1 °F 36.5 °F 30% 29.88 in 10.0 mi East 12.7 mph - N/A   Clear
12:58 PM 78.8 °F 35.6 °F 21% 29.82 in 10.0 mi NE 4.6 mph - N/A   Clear
1:58 PM 80.8 °F 29.3 °F 15% 29.81 in 10.0 mi WSW 6.9 mph - 0.00 in   Clear
2:58 PM 82.0 °F 29.5 °F 15% 29.78 in 10.0 mi South 9.2 mph - N/A   Clear
3:58 PM 83.7 °F 28.0 °F 13% 29.75 in 10.0 mi Variable 4.6 mph - N/A   Clear
4:58 PM 84.4 °F 27.0 °F 12% 29.73 in 10.0 mi Variable 2.3 mph - N/A   Clear
5:58 PM 84.0 °F 29.1 °F 14% 29.72 in 10.0 mi Variable 4.6 mph - N/A   Clear
6:58 PM 83.7 °F 24.3 °F 11% 29.68 in 10.0 mi West 4.6 mph - N/A   Clear
7:58 PM 80.1 °F 34.0 °F 19% 29.66 in 10.0 mi NNE 3.5 mph - N/A   Clear
8:58 PM 74.7 °F 30.2 °F 19% 29.64 in 10.0 mi ESE 5.8 mph - N/A   Clear
9:58 PM 74.7 °F 28.0 °F 18% 29.61 in 10.0 mi East 13.8 mph - N/A   Partly Cloudy
10:58 PM 72.3 °F 28.2 °F 19% 29.60 in 10.0 mi ESE 12.7 mph - N/A   Clear
11:58 PM 69.3 °F 27.1 °F 21% 29.60 in 10.0 mi SSE 10.4 mph - N/A   Scattered Clouds